CST,Max TemperatureF,Mean TemperatureF,Min TemperatureF,Max Dew PointF,MeanDew PointF,Min DewpointF,Max Humidity, Mean Humidity, Min Humidity, Max Sea Level PressureIn, Mean Sea Level PressureIn, Min Sea Level PressureIn, Max VisibilityMiles, Mean VisibilityMiles, Min VisibilityMiles, Max Wind SpeedMPH, Mean Wind SpeedMPH, Max Gust SpeedMPH,PrecipitationIn, CloudCover, Events, WindDirDegrees
2013-2-1,1,-11,-23,0,-15,-27,92,82,70,30.27,30.14,30.02,10,8,0,14,5,,0.00,4,Snow,184
2013-2-2,8,-3,-14,7,-4,-18,100,90,77,30.18,30.08,29.96,10,7,1,15,5,16,0.01,5,Snow,249
2013-2-3,6,0,-5,5,0,-8,92,82,67,30.10,30.05,30.00,10,9,2,10,7,,0.00,5,Snow,18
2013-2-4,17,8,-2,18,3,-8,100,83,72,30.06,29.88,29.59,10,9,2,20,8,26,0.00,6,Snow,174
2013-2-5,28,17,6,27,9,3,100,90,79,30.06,29.91,29.59,10,9,4,22,10,26,0.00,6,Snow,351
2013-2-6,30,19,8,27,18,7,100,90,79,30.08,29.95,29.85,10,10,1,14,8,,0.05,7,Snow,127
2013-2-7,21,16,10,21,16,10,100,98,93,30.32,30.23,30.10,10,9,0,15,10,,0.01,8,Fog,12
2013-2-8,24,15,6,23,17,7,100,94,74,30.31,30.19,30.02,10,8,0,21,6,28,0.02,4,Fog,163
2013-2-9,30,26,21,30,28,21,100,99,93,30.01,29.92,29.86,10,5,2,21,12,26,0.14,7,,159
2013-2-10,30,28,24,30,28,25,100,100,100,29.85,29.64,29.50,7,2,0,36,15,43,0.10,8,Rain-Snow,40
2013-2-11,26,18,10,27,18,10,100,95,86,30.00,29.90,29.66,10,6,1,31,21,36,0.00,2,Snow,316
2013-2-12,26,18,10,25,17,10,100,93,80,29.93,29.82,29.76,10,10,0,13,8,,0.02,3,Fog,197
2013-2-13,28,22,15,28,22,16,100,100,93,29.77,29.67,29.59,10,6,0,17,6,,0.05,4,Rain-Snow,154
2013-2-14,32,16,1,18,10,0,100,92,85,30.26,30.06,29.78,10,9,5,21,11,24,0.00,3,,344
2013-2-15,10,3,-4,9,1,-6,100,91,85,30.38,30.31,30.23,10,9,5,8,4,,0.00,2,Snow,263
2013-2-16,17,6,-4,16,6,-6,100,91,85,30.22,30.09,29.97,10,9,0,18,6,23,0.00,5,Snow,163
2013-2-17,30,22,15,30,23,12,100,96,86,29.97,29.68,29.49,10,8,2,25,17,34,0.00,3,,172
2013-2-18,30,15,0,30,9,-2,100,94,85,30.10,29.80,29.48,7,1,0,41,21,48,0.00,8,Rain-Snow,337
2013-2-19,0,-7,-14,-4,-11,-18,92,85,77,30.48,30.33,30.12,10,4,0,32,22,36,0.00,6,Snow,356
2013-2-20,1,-8,-18,-4,-13,-24,92,80,71,30.48,30.43,30.34,10,10,7,6,3,,0.00,0,,25
2013-2-21,19,6,-7,10,2,-11,92,77,58,30.40,30.31,30.16,10,10,10,10,3,,0.00,0,,98
2013-2-22,17,14,10,18,13,9,100,92,79,30.15,30.01,29.91,10,9,1,13,7,,0.00,3,Snow,349
2013-2-23,17,12,6,18,14,7,100,99,92,29.95,29.89,29.87,10,3,0,6,1,,0.08,7,Fog-Snow,165
2013-2-24,19,10,0,18,10,-2,100,95,86,30.06,30.02,29.96,10,7,0,14,3,,0.00,4,Fog-Snow,175
2013-2-25,23,18,12,23,19,10,100,100,92,30.09,30.05,30.01,10,3,0,13,4,,0.00,6,Fog,185
2013-2-26,21,18,15,21,19,16,100,100,100,30.08,30.05,30.02,4,1,0,7,3,,0.07,8,Fog,170
2013-2-27,26,17,8,27,17,9,100,99,92,30.17,30.12,30.07,10,6,0,22,4,24,0.00,5,Fog-Snow,351
2013-2-28,24,20,17,23,20,18,100,94,80,30.30,30.25,30.17,10,10,10,17,10,,0.00,6,,5